Weather History for KMIB - September, 2013

Change the Weather History Date:

Sunday, September 15, 2013

  Actual Average Record
Temperature  
Mean Temperature 52 °F -  
Max Temperature 64 °F 67 °F 86 °F (1998)
Min Temperature 41 °F 43 °F 29 °F (2011)
Degree Days  
Heating Degree Days 13    
Growing Degree Days 2 (Base 50)    
Moisture  
Dew Point 40 °F    
Average Humidity 69    
Maximum Humidity 93    
Minimum Humidity 36    
Precipitation  
Precipitation 0.00 in - - ()
Sea Level Pressure  
Sea Level Pressure 30.31 in    
Wind  
Wind Speed 6 mph (ENE)    
Max Wind Speed 10 mph    
Max Gust Speed -    
Visibility 10 miles    
Events      
Averages and records for this station are not official NWS values.
T = Trace of Precipitation, MM = Missing Value Source: NWS Daily Summary

Daily Weather History Graph

Daily Weather History Graph

Search for Another Location

Airport or City:

Trip Planner

Search our weather history database for the weather conditions in past years. The results will help you decide how hot, cold, wet, or windy it might be!

Date:

Astronomy

Sep. 15, 2013 Rise Set
Actual Time 7:22 AM CDT 7:57 PM CDT
Civil Twilight 6:51 AM CDT 8:28 PM CDT
Nautical Twilight 6:13 AM CDT 9:06 PM CDT
Astronomical Twilight 5:34 AM CDT 9:45 PM CDT
Moon 5:39 PM CDT (9/15) 2:46 AM CDT (9/15)
Length of Visible Light 13h 37m
Length of Day
12h 34m
Waxing Gibbous, 82% of the Moon is Illuminated
Sep 15
Waxing Gibbous
Sep 19
Full
Sep 26
Last Quarter
Oct 4
New
Oct 11
First Quarter

Hourly Weather History & Observations

Time (CDT) Temp. Windchill Dew Point Humidity Pressure Visibility Wind Dir Wind Speed Gust Speed Precip Events Conditions
12:58 AM 49.8 °F - 44.1 °F 81% 30.17 in 10.0 mi NE 9.2 mph - N/A   Clear
1:58 AM 47.3 °F - 43.0 °F 85% 30.19 in 10.0 mi North 4.6 mph - N/A   Clear
2:58 AM 45.3 °F 42.3 °F 41.7 °F 87% 30.22 in 10.0 mi NNW 5.8 mph - N/A   Clear
3:58 AM 44.2 °F 40.3 °F 41.4 °F 90% 30.24 in 10.0 mi North 6.9 mph - N/A   Clear
4:58 AM 43.0 °F 38.8 °F 40.6 °F 91% 30.25 in 10.0 mi North 6.9 mph - N/A   Clear
5:58 AM 41.5 °F 37.1 °F 39.4 °F 92% 30.27 in 10.0 mi North 6.9 mph - N/A   Clear
6:58 AM 41.0 °F 38.0 °F 39.2 °F 93% 30.29 in 10.0 mi North 4.6 mph - N/A   Clear
7:58 AM 41.2 °F 38.2 °F 39.4 °F 93% 30.32 in 10.0 mi North 4.6 mph - N/A   Clear
8:58 AM 45.5 °F 42.5 °F 42.4 °F 89% 30.34 in 10.0 mi NNE 5.8 mph - N/A   Clear
9:58 AM 50.2 °F - 42.8 °F 76% 30.34 in 10.0 mi ENE 6.9 mph - N/A   Clear
10:48 AM 51.8 °F - 41.0 °F 67% 30.33 in 10.0 mi ESE 5.8 mph - N/A   Mostly Cloudy
10:58 AM 51.8 °F - 41.0 °F 67% 30.37 in 10.0 mi East 3.5 mph - N/A   Scattered Clouds
11:03 AM 51.8 °F - 41.0 °F 67% 30.33 in 10.0 mi ENE 2.3 mph - N/A   Mostly Cloudy
11:38 AM 53.6 °F - 42.8 °F 67% 30.33 in 10.0 mi East 4.6 mph - N/A   Scattered Clouds
11:53 AM 53.6 °F - 41.0 °F 62% 30.33 in 10.0 mi Variable 4.6 mph - N/A   Mostly Cloudy
11:58 AM 53.1 °F - 41.7 °F 65% 30.37 in 10.0 mi Variable 3.5 mph - N/A   Mostly Cloudy
12:08 PM 53.6 °F - 41.0 °F 62% 30.33 in 10.0 mi ESE 3.5 mph - N/A   Scattered Clouds
12:58 PM 56.1 °F - 40.3 °F 55% 30.37 in 10.0 mi ENE 3.5 mph - N/A   Clear
1:58 PM 59.2 °F - 40.3 °F 50% 30.37 in 10.0 mi Variable 5.8 mph - N/A   Clear
2:58 PM 61.3 °F - 38.7 °F 43% 30.35 in 10.0 mi ENE 6.9 mph - N/A   Clear
3:58 PM 62.2 °F - 38.7 °F 42% 30.32 in 10.0 mi ENE 6.9 mph - N/A   Clear
4:58 PM 63.7 °F - 36.5 °F 36% 30.32 in 10.0 mi East 10.4 mph - N/A   Clear
5:58 PM 63.5 °F - 36.9 °F 37% 30.31 in 10.0 mi ESE 8.1 mph - N/A   Clear
6:58 PM 61.5 °F - 39.6 °F 44% 30.31 in 10.0 mi ESE 8.1 mph - N/A   Clear
7:58 PM 54.9 °F - 41.4 °F 60% 30.32 in 10.0 mi ESE 6.9 mph - N/A   Clear
8:58 PM 47.8 °F - 39.4 °F 72% 30.32 in 10.0 mi SE 5.8 mph - N/A   Clear
9:58 PM 46.2 °F 43.3 °F 39.0 °F 76% 30.30 in 10.0 mi SE 5.8 mph - N/A   Clear
10:58 PM 46.2 °F 42.7 °F 38.8 °F 75% 30.30 in 10.0 mi SSE 6.9 mph - N/A   Clear
11:58 PM 43.9 °F 40.5 °F 39.4 °F 84% 30.30 in 10.0 mi SE 5.8 mph - N/A   Clear